Regional Weather Roundup
Issued by NWS Cleveland, OH

Home | Current Version | Previous Version | Text Only | Print | Product List | Glossary Off
Versions: 1 2 3 4 5 6 7 8 9 10 11 12 13 14 15 16 17 18 19 20 21 22 23 24 25 26 27 28 29 30 31 32 33 34 35 36 37 38 39 40 41 42 43 44 45 46 47 48 49 50

538
ASUS41 KCLE 192312
RWRCLE
OHIO REGIONAL WEATHER ROUNDUP
NATIONAL WEATHER SERVICE WILMINGTON, OH
600 PM EST SUN FEB 19 2017

NOTE: "FAIR" INDICATES FEW OR NO CLOUDS BELOW 12,000 FEET WITH NO
SIGNIFICANT WEATHER AND/OR OBSTRUCTIONS TO VISIBILITY.

OHZ001>008-015>018-024>027-034-035-043-044-200000-
   NORTHWEST OHIO

CITY           SKY/WX    TMP DP  RH WIND       PRES   REMARKS
DEFIANCE       FAIR      60  31  33 CALM      30.07R
FINDLAY        FAIR      59  35  40 W7        30.06R
TOLEDO EXPRESS FAIR      60  30  32 W6        30.05S
TOLEDO EXEC    FAIR      59  33  37 W6        30.06R
LIMA           FAIR      59  36  42 W7        30.08R
$$

OHZ009>014-019>023-028>033-038-089-200000-
   NORTHEAST OHIO

CITY           SKY/WX    TMP DP  RH WIND       PRES   REMARKS
CLE-HOPKINS    FAIR      58  34  40 W8        30.08R
CLE-LAKEFRONT  FAIR      47  36  65 S5        30.06R
CUY CO. ARPT   PTCLDY    54  39  58 W9        30.07R
LORAIN-ELYRIA  FAIR      56  34  43 N5        30.07R
ASHTABULA      FAIR      51  34  52 W6        30.07R
AKRON-CANTON   FAIR      57  35  43 W8        30.06R
WOOSTER        FAIR      53  37  54 W9        30.08R
MANSFIELD      FAIR      58  35  42 W6        30.08R
YOUNGSTOWN     FAIR      52  31  44 NW10      30.06R
$$

OHZ042-051>053-060>062-070>072-077>081-200000-
  SOUTHWEST OHIO

CITY           SKY/WX    TMP DP  RH WIND       PRES   REMARKS
CINC-COVINGTON FAIR      56  47  71 S8        30.12R
CINC-LUNKEN    FAIR      55  47  74 S8        30.13R
HAMILTON       FAIR      59  46  62 W3        30.13R
DAYTON         FAIR      55  45  68 S9        30.11R
WRIGHT-PAT AFB FAIR      53  47  78 S8        30.11R
DAYTON GENERAL FAIR      53  45  74 S3        30.11R
WILMINGTON     FAIR      54  45  71 SW5       30.12R
$$

OHZ036-037-039>041-045>050-054>059-063>069-073>076-082>088-200000-
  CENTRAL AND SOUTHEAST OHIO

CITY           SKY/WX    TMP DP  RH WIND       PRES   REMARKS
COLUMBUS       FAIR      55  45  68 S8        30.11R
OSU AIRPORT    FAIR      55  46  71 S9        30.10R
BOLTON FIELD   CLEAR     54  45  71 SW10      30.12R
RICKENBACK AFB FAIR      51  45  80 SW6       30.11R
NEWARK         FAIR      52  44  74 SW8       30.10R
MARION         FAIR      58  35  42 NW5       30.08R
LANCASTER      FAIR      53  45  74 SW6       30.12R
ZANESVILLE     FAIR      52  43  71 SW8       30.10R
NEW PHILLY     FAIR      61  35  37 W5        30.07R
$$




USA.gov is the U.S. government's official web portal to all federal, state and local government web resources and services.